GFSNGP_700_rhum_243.txt.gz
RH
56 95 95 99 99 99 96 94 88 98 100 98 75 86 88 90 84 78 70 63 69 83 92 93 94 95 94 94 95 97 98 93 83 54 40 38 39 41 56 74 97 100 99 85
63 73 98 99 100 92 85 94 86 76 92 100 100 76 63 62 62 61 48 38 33 34 50 67 80 89 94 95 76 90 94 95 93 95 53 36 30 35 40 62 66 76 93 96
49 38 84 88 100 98 85 89 100 100 100 100 100 92 62 58 67 57 45 36 24 22 24 28 39 52 68 83 85 57 53 62 78 87 88 50 31 32 35 39 77 83 100 100
52 45 59 90 100 100 87 91 100 100 100 100 99 64 66 100 79 66 60 57 49 33 22 21 21 26 33 44 61 62 46 44 50 58 79 42 27 25 25 28 35 72 92 94
59 56 76 100 99 81 74 76 100 100 80 78 80 69 87 86 72 63 62 60 56 50 43 29 22 17 17 24 32 36 39 41 39 36 34 33 30 24 20 15 20 30 66 73
59 62 63 100 66 57 64 97 90 74 76 86 83 92 75 72 70 69 68 64 60 57 52 50 47 40 24 12 16 22 27 31 34 34 32 29 27 24 21 16 10 14 24 51
60 56 86 99 68 64 70 94 70 83 91 97 100 100 90 82 79 83 87 77 68 64 62 61 60 55 40 25 13 11 15 19 23 27 28 26 24 22 19 17 13 8 10 19
75 64 76 88 80 100 100 86 93 95 100 100 99 95 88 83 80 78 80 84 81 73 71 72 69 63 57 42 27 19 11 9 12 17 20 22 20 17 16 15 14 11 6 9
100 92 90 100 100 100 100 100 100 100 100 100 96 90 87 85 83 81 82 82 86 83 74 77 76 70 61 57 40 24 19 13 8 8 11 13 14 13 13 13 12 11 8 5
98 90 100 90 100 99 99 100 99 100 100 100 99 90 85 88 90 86 85 83 86 87 86 80 81 77 77 69 56 34 21 18 15 10 9 10 10 10 10 11 10 10 8 5
84 100 80 98 98 99 87 94 99 93 100 100 100 95 99 96 94 94 92 90 90 91 92 90 86 82 87 84 68 39 26 23 22 20 17 14 11 10 9 10 9 8 7 5
97 98 100 94 92 92 87 92 98 96 83 91 100 100 99 96 99 99 98 97 94 94 93 94 93 94 96 86 74 44 31 29 27 24 24 23 19 13 13 13 12 9 8 6
100 100 100 100 100 100 100 100 100 100 100 93 94 98 100 100 99 99 100 100 100 97 96 95 95 98 100 83 67 50 40 36 31 29 32 33 36 35 29 25 17 15 10 8
100 99 95 99 97 100 100 100 100 100 100 100 98 100 100 99 100 100 99 99 98 96 96 97 97 100 100 84 63 50 40 36 34 34 38 53 56 53 42 32 23 16 12 10
100 100 100 100 100 100 100 100 100 100 100 100 100 100 100 98 99 100 100 100 100 100 100 100 100 100 100 86 61 46 39 38 40 52 56 59 70 59 38 24 18 14 10 9
100 100 100 100 100 100 100 100 100 100 100 100 100 98 100 100 100 100 100 100 99 96 97 97 98 100 100 91 61 49 47 53 55 52 58 73 70 51 32 26 18 12 9 9
93 88 89 94 99 100 99 100 100 100 100 98 100 100 100 100 100 100 100 100 100 100 98 98 98 99 100 99 66 50 48 50 48 56 68 76 73 55 38 31 23 16 13 18
98 99 97 94 87 69 70 91 98 100 99 100 100 100 100 99 99 100 100 100 100 100 100 100 98 98 99 100 91 64 49 46 47 57 73 68 64 49 40 35 30 32 40 65
96 96 84 85 47 43 47 53 64 83 83 82 88 99 100 100 100 100 100 98 97 94 97 98 99 99 98 100 99 90 77 72 72 71 68 65 55 50 47 47 58 84 99 100
93 84 82 67 35 43 54 59 64 65 68 74 79 85 98 99 100 100 99 98 100 100 100 100 100 99 99 98 100 100 99 94 88 83 74 64 60 62 65 85 100 100 100 99
87 74 76 54 34 42 47 53 57 61 72 71 71 88 100 100 98 98 99 92 93 99 99 98 99 100 98 98 98 98 100 100 100 96 85 78 77 86 98 98 99 99 98 98
85 73 73 68 34 39 47 55 56 62 72 73 67 80 94 96 99 99 100 100 99 100 99 96 99 100 100 99 98 99 98 99 100 100 100 100 100 99 98 98 98 98 98 98
86 77 67 77 52 36 43 50 53 57 56 58 68 85 97 98 96 89 90 98 98 100 100 99 100 100 99 98 98 97 99 100 100 100 100 100 100 99 98 97 97 97 98 98
88 85 70 73 79 58 40 44 48 54 58 59 63 71 90 100 100 100 100 100 100 100 100 100 100 100 100 98 99 98 98 98 98 98 98 98 98 97 98 98 99 98 98 98
88 83 79 73 75 75 66 41 41 46 54 60 59 67 86 95 97 98 100 100 100 100 100 100 100 100 100 100 100 100 99 98 98 99 98 98 98 98 98 98 98 98 98 98
92 84 80 72 62 69 74 73 48 40 44 55 58 63 80 99 100 100 99 98 100 100 100 100 100 100 99 99 100 99 99 99 99 99 99 99 99 99 99 98 98 98 98 99
90 90 85 82 70 66 66 71 79 55 40 44 56 58 70 94 100 100 100 95 91 99 100 100 100 100 100 100 100 100 100 99 97 97 96 95 95 95 95 94 93 92 91 92

GFSNGP_700_rhum_246.txt.gz
RH
63 97 90 84 82 66 76 90 90 89 100 92 87 76 67 63 51 43 38 37 33 36 42 64 87 93 95 95 97 96 97 92 90 93 61 48 46 48 50 57 73 96 92 90
68 94 95 86 86 71 63 86 83 94 96 95 79 65 67 83 86 56 60 52 48 36 24 22 28 36 67 93 94 93 92 93 95 94 91 63 40 41 39 37 38 55 93 99
65 46 67 97 97 85 66 79 94 100 100 77 61 59 70 72 82 76 67 58 50 47 39 28 20 22 29 36 54 94 95 71 64 78 73 91 94 88 62 42 34 30 44 64
80 52 76 100 100 76 68 97 100 99 97 76 71 69 77 82 80 67 58 58 55 54 48 44 36 24 18 24 29 37 57 93 61 46 65 64 84 78 56 71 82 29 32 63
73 65 87 99 86 90 73 83 100 99 88 68 70 63 66 78 72 68 65 60 63 63 58 52 48 39 28 19 16 23 29 35 85 44 40 50 57 65 55 30 24 23 25 30
58 76 72 100 100 71 57 87 96 77 74 80 77 76 64 74 75 70 71 72 64 61 59 58 56 55 48 36 20 13 16 23 31 39 34 37 38 50 46 29 23 19 15 14
66 68 89 100 79 63 80 88 72 94 93 89 94 100 90 87 83 89 84 76 70 64 60 59 61 61 55 52 43 26 12 11 17 22 25 30 32 30 28 25 23 20 16 13
88 78 94 84 78 91 100 86 100 94 99 99 96 91 90 88 87 84 84 83 77 65 63 68 67 63 58 55 50 42 24 12 8 12 15 18 22 25 24 22 19 18 16 14
99 87 98 95 100 100 100 100 100 100 100 100 99 92 90 88 85 83 89 88 84 78 69 74 75 70 60 58 53 46 38 22 12 8 8 10 12 16 18 19 17 15 14 13
95 79 76 100 96 100 100 100 100 100 100 100 99 96 88 88 91 92 92 90 87 86 81 78 80 76 72 64 59 52 46 33 19 12 10 8 7 8 10 12 14 12 12 12
76 94 85 93 99 100 92 100 100 98 100 100 100 93 96 96 96 94 94 94 98 99 93 90 89 84 81 77 75 72 66 50 29 19 14 13 10 8 8 9 9 10 10 10
89 98 100 95 100 99 98 100 100 96 84 92 100 100 100 99 100 99 95 100 99 100 100 98 95 92 91 88 87 81 75 69 45 28 21 19 17 14 12 12 9 8 8 9
98 99 100 100 100 100 99 98 98 99 99 90 97 99 100 99 98 100 100 99 100 98 95 94 93 94 96 97 96 85 72 60 44 32 28 26 24 23 22 19 16 11 9 10
100 97 96 99 95 98 100 100 100 100 100 100 100 100 100 100 100 100 100 100 100 100 99 96 97 98 97 100 100 85 68 54 43 35 31 30 31 33 33 30 29 25 18 15
100 100 100 98 100 100 100 100 100 100 99 100 100 100 100 100 99 100 100 100 100 100 100 100 99 99 99 100 100 87 60 50 41 37 35 36 42 54 56 55 46 35 26 18
100 100 100 100 96 77 79 97 94 92 95 99 99 99 100 100 100 100 100 100 100 94 96 95 98 98 99 100 100 81 56 49 45 47 54 57 56 68 74 63 39 26 20 15
94 89 83 83 57 44 46 57 72 70 71 76 86 100 100 100 100 100 100 100 100 100 100 100 100 99 100 100 100 87 58 54 55 54 52 63 80 83 78 54 38 31 23 17
99 93 86 81 38 44 52 56 62 68 74 81 80 100 100 100 100 100 100 100 100 100 100 99 99 99 99 99 100 100 73 53 50 50 59 77 85 82 72 52 42 36 35 38
95 82 81 68 37 46 50 58 61 66 75 79 87 99 100 100 100 100 100 100 97 87 99 99 100 100 99 99 99 100 100 92 81 78 79 80 78 68 58 55 52 59 78 92
96 82 80 62 36 43 52 60 68 70 71 76 90 100 98 97 100 100 100 99 100 100 100 98 99 99 99 98 98 99 100 100 100 100 95 86 75 73 74 80 98 100 100 99
88 77 75 73 37 40 47 52 62 65 66 75 86 92 100 100 100 91 95 96 93 100 100 98 98 100 100 100 98 98 98 98 99 100 100 100 96 96 100 100 99 99 98 98
87 80 70 75 59 37 41 47 53 60 65 84 93 91 95 97 100 100 99 100 97 100 100 94 100 100 100 100 99 98 99 99 98 98 99 99 100 100 100 99 98 98 98 98
90 83 70 70 75 64 42 41 46 50 59 61 71 97 96 94 96 88 90 95 99 100 100 98 100 100 100 99 99 99 98 99 99 99 99 99 99 99 99 99 98 98 99 99
94 88 81 67 70 80 78 49 42 44 53 62 63 79 92 98 100 100 100 100 100 100 100 100 100 100 100 100 99 98 98 98 98 98 98 99 98 98 99 98 98 98 98 98
93 88 85 77 69 75 78 81 54 42 45 58 62 77 94 93 93 94 98 100 100 100 100 100 100 100 99 99 100 99 99 98 99 99 99 99 98 98 98 98 98 98 98 98
83 90 82 78 71 68 75 78 80 59 41 51 59 64 90 98 100 100 99 96 100 100 100 100 100 100 100 99 100 100 99 99 99 99 100 99 100 99 99 99 99 99 99 99
57 86 90 83 82 70 64 70 82 86 50 42 56 58 76 95 100 100 100 99 90 97 100 100 100 100 100 100 100 100 98 87 74 68 64 69 74 77 83 83 85 85 79 75

GFSNGP_700_rhum_249.txt.gz
RH
66 99 98 83 62 56 82 91 84 84 100 87 86 69 75 68 64 61 53 45 40 35 26 21 41 54 70 85 97 95 93 95 93 93 94 91 91 98 98 99 99 100 98 100
73 97 93 90 84 78 64 85 93 96 86 99 96 73 68 75 70 66 64 58 49 43 38 34 23 22 33 52 56 94 100 96 92 100 97 96 95 94 93 90 82 90 71 85
62 69 72 99 98 96 85 94 99 100 100 100 84 72 68 79 78 74 68 64 54 46 40 37 36 23 16 25 25 42 70 92 91 78 94 93 87 51 39 38 38 38 40 59
80 59 85 98 100 100 92 100 100 100 100 88 75 66 72 81 88 75 66 65 62 55 47 43 38 38 31 20 17 21 27 47 85 83 67 81 84 90 89 89 86 74 59 52
72 66 76 100 81 89 81 80 100 100 79 72 74 65 66 78 76 77 78 67 67 68 60 51 45 40 40 37 25 19 17 24 31 80 74 51 64 68 80 77 75 74 71 71
59 77 74 100 90 79 58 75 99 74 82 95 90 83 64 70 74 70 70 70 67 66 60 56 52 47 42 42 42 34 21 14 19 23 47 76 40 48 53 71 59 40 29 36
68 69 94 96 91 65 74 86 80 95 100 97 95 100 96 87 81 84 83 78 69 61 61 62 56 52 48 47 49 46 40 25 13 14 18 27 47 36 39 46 66 46 29 22
87 92 94 85 79 92 98 88 100 98 100 97 95 92 95 92 93 92 87 81 81 72 66 66 66 61 59 55 50 47 45 41 32 16 10 14 22 29 30 34 35 44 26 22
93 88 98 100 100 100 100 100 100 99 95 100 98 94 98 98 98 95 96 92 91 86 79 81 82 78 69 65 59 52 48 42 35 28 16 10 11 16 19 22 26 24 22 20
85 83 86 100 100 100 100 100 100 100 100 100 99 100 100 100 99 96 94 94 92 91 90 92 94 92 86 73 64 56 49 44 38 31 25 13 8 9 11 13 15 17 18 17
75 86 84 96 99 98 96 100 100 99 100 100 100 100 100 100 97 94 92 91 99 99 96 97 94 91 88 81 72 63 58 55 51 42 34 23 12 9 8 9 8 10 11 12
91 98 100 96 100 99 99 100 100 97 91 99 100 100 97 98 100 98 96 100 97 100 98 96 93 90 86 80 74 72 72 65 60 55 46 30 19 14 11 10 8 7 7 8
100 100 100 100 100 100 100 100 100 100 100 90 97 99 100 100 100 100 100 100 100 100 99 98 94 90 90 89 90 92 85 73 69 64 53 35 23 20 19 14 12 10 8 8
100 94 94 99 94 90 88 100 100 100 100 100 100 100 100 100 100 100 96 99 100 100 100 98 98 96 92 91 92 94 82 67 59 53 42 32 27 24 22 22 19 17 16 11
100 99 99 98 92 62 56 64 74 66 67 73 97 100 100 98 99 100 100 100 100 100 100 99 99 96 96 96 97 98 83 60 51 46 40 34 31 31 30 28 28 30 28 23
98 99 100 90 52 49 53 56 59 65 74 77 93 100 100 100 100 100 100 100 99 99 94 100 98 97 97 99 100 100 76 55 46 41 37 37 41 47 54 60 66 62 51 39
93 84 75 78 39 47 48 55 64 71 79 82 95 100 100 100 100 100 100 100 100 100 100 100 97 98 98 98 99 100 77 59 59 59 58 56 57 67 79 81 75 51 36 30
98 85 73 76 37 44 52 58 62 68 76 82 100 100 98 98 99 100 100 100 100 98 100 100 100 100 99 99 99 100 100 77 56 54 61 70 85 87 81 78 61 47 39 36
94 85 75 81 42 45 51 60 63 64 74 85 100 98 99 100 100 100 100 97 94 83 99 98 100 99 99 98 99 99 100 100 100 98 95 95 91 83 71 64 62 64 72 83
92 86 76 82 55 40 50 54 63 67 66 75 99 100 99 93 98 100 100 100 100 100 100 99 98 100 98 99 98 98 98 98 98 99 98 99 95 93 92 95 99 100 100 99
92 84 75 76 80 50 42 47 53 64 67 67 85 96 99 100 97 93 94 97 97 97 100 97 97 100 100 100 99 97 98 98 98 98 99 100 100 100 100 100 100 99 99 99
93 86 81 71 74 76 56 43 45 52 66 75 98 99 92 95 99 100 99 100 99 99 100 95 100 100 100 100 99 98 98 99 98 98 98 99 100 100 100 99 99 99 99 98
93 88 83 72 72 73 75 68 46 45 53 60 78 98 90 91 93 86 89 94 98 100 100 99 100 100 100 100 99 99 99 98 98 98 99 100 100 100 99 99 99 99 99 98
93 94 87 82 70 70 80 83 69 45 44 60 69 89 91 96 100 100 100 100 100 100 100 100 100 100 100 99 100 99 99 97 98 98 98 98 99 99 99 99 99 98 98 98
69 92 90 86 81 69 73 81 88 65 44 55 66 82 94 90 90 94 98 100 100 100 100 100 100 100 99 98 99 99 98 98 99 100 99 98 98 99 99 99 99 98 98 98
56 78 89 85 81 74 68 79 83 85 49 46 64 68 93 98 100 100 100 92 97 100 100 100 97 100 100 100 100 98 84 76 72 79 91 97 98 98 99 99 99 99 99 99
55 60 87 91 86 84 72 71 81 88 81 42 57 59 72 97 98 100 100 100 84 85 98 100 99 99 100 100 100 100 100 99 86 72 62 56 54 51 50 47 45 42 41 38

GFSNGP_700_rhum_255.txt.gz
RH
45 61 86 96 100 98 95 96 97 86 92 82 87 88 75 66 66 67 65 61 60 57 55 49 44 39 38 35 34 33 78 94 96 95 97 98 94 94 98 94 97 98 100 99
40 75 96 100 100 100 99 90 74 82 80 91 87 71 67 76 82 77 66 62 62 60 58 56 49 41 36 35 32 32 33 92 92 93 94 94 96 97 96 98 99 97 98 98
53 80 78 100 100 99 99 94 90 98 95 100 89 70 74 91 88 84 83 72 66 67 63 61 54 45 39 35 34 32 30 39 68 58 95 96 96 95 93 96 99 98 99 100
66 82 77 79 100 100 98 98 90 100 100 100 87 75 88 96 100 96 91 86 75 70 68 66 61 48 42 39 36 32 31 30 29 40 34 94 96 95 96 95 96 98 98 97
76 63 64 98 100 93 92 79 88 100 94 87 84 74 72 92 98 100 100 98 91 82 80 75 71 53 44 39 36 33 32 32 27 25 24 28 88 96 93 92 92 95 92 93
67 90 92 75 85 93 82 81 96 96 92 97 96 90 70 81 87 85 91 98 96 88 85 85 80 63 53 45 36 33 32 33 37 28 22 21 25 83 94 94 95 95 97 95
62 75 63 66 68 81 90 86 83 93 94 98 99 100 99 97 89 95 96 93 89 87 93 96 83 74 67 61 49 36 32 33 36 35 28 21 21 23 62 70 74 92 93 92
82 98 93 85 90 99 98 86 92 92 100 98 94 95 98 99 100 96 88 85 87 86 87 96 97 87 79 73 66 49 39 36 34 37 35 32 22 20 20 50 56 53 56 67
90 82 93 100 98 100 100 100 100 100 100 99 93 97 97 96 96 97 100 95 94 87 90 100 100 100 87 86 81 68 61 53 41 38 35 35 30 20 15 17 32 57 43 54
80 76 99 100 100 100 100 100 100 100 100 99 90 97 99 100 95 95 97 98 94 96 95 98 99 99 98 96 90 80 74 69 57 46 41 35 31 27 21 16 12 20 57 41
62 91 92 99 100 100 95 97 69 82 92 86 86 96 99 100 99 99 99 96 100 99 100 100 99 100 99 95 92 88 80 69 59 49 44 37 32 28 25 22 18 12 14 31
82 97 96 98 94 93 90 52 55 62 64 85 94 98 99 100 100 100 97 100 96 100 100 100 100 100 100 100 99 90 84 74 63 51 45 37 32 30 25 22 20 17 12 12
88 91 97 97 100 96 68 52 62 66 80 77 98 100 100 100 100 100 100 100 100 100 100 100 100 100 100 100 100 99 94 88 79 65 55 50 44 36 31 24 25 21 16 12
94 89 97 100 88 79 44 56 65 74 89 98 100 100 100 100 100 100 100 100 100 100 100 100 100 100 100 100 100 100 100 92 78 70 59 54 55 51 49 44 35 26 22 16
97 97 99 94 85 74 48 53 66 72 76 88 99 100 100 100 99 100 100 100 100 100 100 99 99 96 97 100 100 100 100 91 69 61 57 56 54 51 46 40 34 29 26 23
100 100 99 88 89 62 44 53 62 66 66 77 91 95 100 100 100 100 100 100 98 98 100 96 100 95 99 100 100 100 100 80 67 57 51 48 47 45 42 40 35 36 37 35
97 100 100 90 87 64 40 48 52 58 62 76 90 92 99 100 100 99 100 100 100 100 100 100 97 99 100 100 99 100 100 97 79 73 73 70 68 69 71 72 74 76 74 69
95 96 89 79 75 80 52 44 47 51 63 71 93 92 96 98 92 94 98 100 100 100 98 100 96 100 100 99 99 98 98 100 100 100 100 100 100 99 94 89 86 84 74 59
94 100 94 88 77 83 80 53 44 46 59 70 94 92 95 100 100 100 100 97 93 90 89 100 99 99 99 99 100 100 98 98 98 98 99 99 98 97 92 87 82 81 82 85
79 96 93 90 78 76 81 81 53 45 50 66 97 98 100 95 97 100 100 97 97 99 98 100 97 98 97 99 100 100 99 98 98 98 98 97 98 98 98 97 96 95 95 100
63 95 96 91 87 76 77 80 78 49 48 59 76 92 95 98 92 95 98 94 97 94 99 100 93 100 100 100 100 100 100 99 99 98 99 98 98 98 98 98 97 97 98 99
57 78 98 93 88 79 73 79 84 68 45 63 74 96 99 100 100 98 94 97 98 93 98 100 98 100 100 100 100 100 100 100 99 100 99 99 99 99 99 98 98 98 97 97
59 56 82 93 88 85 71 70 81 87 51 51 65 95 91 86 87 84 89 94 97 96 99 100 100 100 100 90 86 98 100 100 98 98 99 99 99 98 98 98 98 98 98 97
70 56 58 86 90 84 82 74 80 85 82 43 56 67 97 100 100 99 90 94 99 100 98 99 100 100 100 99 90 80 81 90 97 100 100 100 99 99 99 99 99 98 98 98
84 69 55 65 90 91 88 75 77 85 87 58 52 58 73 91 87 87 94 95 94 93 99 100 100 100 100 98 99 99 98 89 84 88 89 91 92 93 95 98 98 99 99 99
99 82 68 56 75 88 86 81 71 87 91 87 45 60 60 78 92 91 93 98 100 98 90 85 99 100 99 97 98 100 100 100 100 95 93 82 68 60 54 52 49 48 47 49
98 97 80 67 54 77 87 85 74 85 94 95 65 50 60 59 75 91 92 96 100 98 94 93 78 83 98 100 100 100 100 100 100 100 100 100 98 94 81 74 60 51 46 43

GFSNGP_700_rhum_258.txt.gz
RH
49 42 54 93 99 100 100 100 100 90 86 82 79 88 88 86 84 80 78 73 76 76 69 65 58 49 45 40 38 35 32 34 57 95 96 97 96 96 96 96 98 100 95 98
47 44 78 99 100 100 100 99 87 80 75 90 85 78 82 88 88 85 82 85 87 87 82 75 65 54 49 45 39 36 34 34 37 87 96 96 96 97 96 96 98 95 98 100
54 59 73 96 98 100 98 91 80 89 91 92 88 82 84 94 94 95 100 96 90 88 84 82 74 62 51 46 39 36 34 34 36 42 92 96 96 96 97 96 95 98 97 100
61 72 76 67 89 100 97 80 76 85 86 99 96 83 93 99 100 100 100 100 92 89 87 88 83 71 60 55 44 38 34 33 35 37 44 83 94 95 96 96 98 96 98 97
69 61 56 76 97 97 96 74 78 86 100 90 92 76 74 96 100 100 100 100 100 100 98 94 93 83 69 58 51 43 38 32 33 33 36 35 45 88 97 96 97 94 95 99
59 91 97 75 91 99 88 80 93 100 89 92 91 93 76 83 93 96 100 100 100 100 100 100 95 84 79 71 62 54 46 35 33 33 36 36 31 40 81 96 95 96 99 97
66 66 58 65 72 85 93 88 88 88 91 96 96 100 100 100 97 100 100 100 100 100 100 100 93 88 85 86 80 69 59 42 35 36 35 38 36 30 27 61 97 96 94 93
85 90 84 72 88 100 99 90 87 90 99 96 93 84 91 100 100 100 99 96 98 97 94 100 99 95 91 89 90 88 77 55 42 40 37 37 37 37 30 23 69 95 96 96
89 76 71 96 100 100 99 91 97 88 72 84 78 90 98 100 99 98 100 99 100 96 97 100 100 100 95 94 96 100 94 81 65 52 43 39 35 33 32 26 20 59 82 89
90 64 91 99 100 99 99 100 91 66 73 82 87 96 98 100 97 98 100 99 98 99 96 96 100 100 100 97 98 100 94 88 78 65 57 48 40 35 31 28 23 18 28 58
78 66 93 97 100 98 100 98 62 68 76 84 90 100 100 100 100 100 99 96 100 100 100 100 100 100 100 100 95 94 90 85 78 71 62 53 46 38 33 26 24 21 15 18
65 77 94 97 96 94 88 61 55 60 64 78 97 100 98 100 100 100 98 100 98 100 100 100 100 100 100 100 96 90 90 89 82 74 70 54 45 38 32 30 24 22 19 14
59 87 98 96 95 91 83 48 51 63 72 69 92 100 100 100 100 100 100 100 100 100 100 100 100 98 100 96 95 95 92 92 94 86 66 58 50 45 38 31 28 23 21 18
77 89 93 97 87 77 70 43 56 66 72 80 98 100 100 100 100 100 99 100 100 100 100 100 100 99 96 98 100 100 100 89 75 72 66 60 56 52 47 44 39 34 28 23
91 95 93 89 88 77 75 42 53 58 66 76 99 100 99 99 98 100 100 100 100 100 100 100 98 99 96 99 95 97 100 90 79 66 64 62 61 59 58 53 46 41 35 29
97 99 99 95 88 78 80 47 46 55 62 72 90 92 97 100 100 100 100 100 99 99 97 99 100 97 100 99 96 98 98 98 90 77 68 64 63 60 55 49 45 43 39 37
73 97 100 100 90 78 80 68 45 48 55 64 84 90 92 95 100 99 100 100 100 100 100 100 100 99 100 99 98 99 98 100 100 100 100 100 100 100 97 94 86 80 74 70
57 83 90 89 84 71 81 85 64 48 50 62 83 91 90 95 93 92 93 98 100 100 100 100 100 100 100 99 99 100 98 97 96 95 96 96 95 95 87 81 78 77 76 72
54 76 97 94 90 78 75 84 85 56 48 60 80 90 86 93 100 100 95 97 93 94 83 100 100 99 100 100 100 100 100 100 99 98 96 94 94 94 96 93 86 85 87 86
53 57 87 94 88 82 74 81 85 81 48 54 73 96 95 90 91 100 99 96 97 99 94 99 100 94 100 100 100 100 100 100 100 100 99 100 99 100 100 98 97 95 96 98
62 53 70 93 92 86 78 74 85 95 60 46 60 87 90 94 90 88 100 100 97 98 96 100 95 91 93 100 100 100 100 100 99 100 99 100 100 100 100 100 100 100 99 99
71 61 55 81 93 89 85 73 80 88 85 47 65 77 95 100 100 98 90 95 99 98 95 100 97 100 100 99 92 99 100 100 100 100 100 100 100 100 100 99 99 99 98 98
91 71 58 57 86 91 86 78 67 82 90 59 58 71 88 80 84 86 92 92 92 96 100 100 100 100 100 100 93 92 97 100 100 100 100 100 100 99 99 98 97 96 96 97
95 91 72 56 62 86 87 88 75 75 84 87 46 58 69 100 100 99 100 98 98 90 91 99 100 100 100 100 100 100 100 100 95 95 93 92 92 96 99 99 100 100 100 99
97 98 92 72 56 72 89 87 82 75 87 90 78 49 58 62 89 91 91 95 99 98 93 83 96 100 100 100 100 100 100 99 98 100 100 96 85 69 58 54 56 62 70 82
99 99 99 91 73 59 78 87 84 75 86 92 93 59 56 62 65 91 94 94 94 98 94 95 81 73 92 99 99 100 100 100 100 100 100 100 100 100 98 83 69 57 50 46
95 98 100 100 89 73 58 80 87 81 80 96 96 91 52 62 63 62 80 91 92 94 96 90 89 89 72 70 87 100 100 100 100 100 100 100 100 100 100 100 99 99 89 64

GFSNGP_700_rhum_261.txt.gz
RH
59 50 46 58 91 100 100 100 100 90 89 84 82 88 90 93 86 84 80 76 80 80 79 77 72 65 61 56 54 48 42 40 38 35 40 95 96 95 98 100 99 95 79 68
62 47 59 77 98 100 100 100 98 83 76 88 81 86 87 90 89 84 83 87 86 84 84 82 75 68 64 59 53 47 42 39 37 33 35 66 98 100 98 93 92 96 91 91
74 60 58 77 87 86 91 96 87 91 83 91 87 86 99 98 94 91 100 100 96 89 89 89 83 74 64 61 57 51 44 40 37 33 32 40 95 96 96 99 98 99 99 99
71 65 66 58 80 96 87 82 77 76 92 100 90 78 95 97 100 100 100 100 94 92 92 92 85 79 76 74 66 60 56 45 39 34 32 35 68 95 95 96 94 95 97 97
68 65 55 67 88 92 94 74 73 89 97 86 84 69 61 85 99 100 100 100 100 99 100 96 95 90 81 76 77 70 67 58 45 36 31 36 44 93 95 96 96 96 96 96
64 82 92 76 83 94 83 81 93 100 91 89 80 73 62 79 96 94 97 100 98 99 100 100 96 90 90 90 89 81 80 70 54 40 32 37 47 70 95 95 96 96 96 96
70 70 51 61 68 71 98 91 99 96 92 64 68 90 97 100 99 100 100 100 100 100 100 100 100 100 95 97 98 95 96 90 68 49 35 38 49 48 61 88 94 96 97 97
84 81 69 61 72 96 97 95 99 88 69 60 70 80 91 98 99 100 98 95 97 97 96 100 100 100 98 98 100 100 100 97 81 66 47 39 46 50 43 46 71 94 96 96
90 78 76 77 94 99 97 95 87 82 58 68 73 84 94 97 99 100 100 99 100 98 99 100 100 100 98 99 99 100 100 99 92 84 66 49 43 47 49 43 40 54 95 96
98 83 68 84 98 98 100 96 93 60 62 75 76 91 89 98 96 98 100 97 96 98 98 98 100 100 100 99 100 100 100 100 91 85 75 61 51 46 47 43 38 32 42 92
89 82 62 94 96 95 100 97 67 60 71 75 73 94 98 94 94 100 99 96 100 100 100 100 100 100 100 100 99 99 100 99 94 84 76 66 57 48 44 41 38 32 30 28
97 58 80 100 100 96 92 84 52 52 61 70 77 97 91 97 100 100 96 100 100 100 100 100 100 100 97 100 100 100 99 100 94 88 78 69 61 48 45 39 35 33 28 31
51 62 94 98 100 95 83 86 48 53 56 60 75 93 99 100 100 100 100 100 100 100 100 100 100 100 100 99 100 100 100 92 83 79 72 66 62 55 46 44 36 35 34 29
51 70 91 100 93 94 78 82 49 50 57 61 68 100 100 100 100 99 98 100 100 100 100 100 100 100 98 99 99 100 100 100 90 78 74 69 66 63 56 53 47 41 36 33
55 68 86 94 96 93 78 82 70 47 52 60 75 97 100 99 99 98 100 100 100 100 100 100 100 97 100 100 98 100 100 100 100 96 82 74 72 67 60 54 50 47 42 37
56 64 93 97 95 93 78 82 82 53 48 55 70 96 97 100 100 100 100 100 92 96 100 100 100 93 100 100 96 100 100 100 100 100 100 100 100 99 95 89 78 65 53 43
51 61 91 100 100 97 77 73 73 71 49 50 67 92 91 96 99 100 100 100 100 97 100 100 100 100 100 99 99 98 98 100 100 100 100 98 97 99 98 94 90 86 80 73
56 50 62 88 89 90 84 76 75 78 59 48 65 90 92 92 91 92 91 98 100 100 100 94 95 100 99 96 99 100 100 97 96 95 98 99 100 100 98 95 90 82 77 74
63 55 57 84 92 91 88 77 75 78 79 48 64 90 89 89 97 98 93 94 97 96 91 88 100 88 98 96 98 100 100 100 100 100 98 100 100 99 98 97 96 96 95 93
78 63 53 67 87 90 90 82 76 80 84 56 56 80 98 94 88 100 95 93 97 99 98 98 100 79 92 97 100 99 97 100 100 100 100 100 100 99 100 100 98 94 95 95
94 79 64 55 76 89 90 87 76 84 89 83 47 60 89 89 85 89 99 99 100 100 100 100 100 93 99 100 100 99 97 98 98 97 97 96 98 97 99 99 97 95 92 92
95 96 80 63 57 80 88 88 81 80 88 92 52 55 67 98 100 100 95 98 94 94 98 100 99 100 100 100 100 100 100 100 96 97 97 95 95 96 95 95 95 95 94 94
92 94 95 81 63 61 82 85 81 71 85 93 80 54 62 64 80 83 93 99 97 94 88 98 100 100 100 100 100 100 100 100 94 89 84 76 74 83 91 93 92 93 94 94
93 94 94 95 80 62 66 88 87 78 72 87 88 60 58 72 82 94 94 100 100 96 95 85 80 99 100 100 100 100 100 100 100 99 100 100 95 79 60 53 58 68 76 87
90 94 94 97 97 80 61 70 89 90 79 90 94 92 55 55 58 71 91 90 93 99 97 94 91 76 77 93 100 100 100 99 98 100 100 100 100 100 98 92 68 54 49 45
66 86 94 94 99 97 80 63 72 88 86 88 97 98 93 55 61 61 62 84 88 89 95 96 87 87 83 77 75 84 99 100 100 100 100 100 100 100 100 100 100 98 95 66
56 65 84 95 96 97 94 80 63 83 91 86 98 100 99 92 58 63 65 61 67 82 85 86 87 83 76 71 82 88 74 92 100 100 100 100 100 100 100 99 99 99 100 82

GFSNGP_700_rhum_267.txt.gz
RH
55 60 68 68 68 82 80 78 87 77 77 76 97 100 99 100 100 95 100 97 85 82 80 83 85 84 82 82 82 80 72 68 61 53 47 42 36 31 28 28 30 73 75 76
68 60 60 68 68 68 89 84 77 73 74 86 78 82 83 90 68 95 84 86 86 89 89 88 90 88 85 88 87 88 83 79 73 63 54 46 40 34 29 29 33 82 85 81
63 53 56 56 70 77 84 93 86 81 86 96 72 94 60 72 100 100 100 96 97 99 98 98 96 95 93 94 98 95 93 92 90 79 65 57 45 35 31 30 39 88 90 88
70 61 50 58 48 50 49 48 80 80 82 83 88 77 60 100 97 97 97 99 98 98 98 97 98 100 97 100 100 99 97 97 98 94 79 66 51 39 35 33 45 91 96 99
66 48 44 61 58 52 64 49 70 66 83 95 79 61 56 78 78 86 91 96 97 100 100 100 100 99 99 100 100 100 98 98 100 100 93 77 60 46 40 37 52 93 96 96
64 68 54 78 61 54 67 93 84 82 87 90 88 53 48 55 77 82 91 98 98 97 100 100 99 98 99 99 99 99 96 97 100 100 99 89 69 51 46 47 64 95 98 96
66 63 60 62 63 59 83 79 70 94 94 91 75 66 73 78 92 100 100 100 99 98 100 100 100 98 99 100 100 100 100 99 100 100 100 97 79 64 56 57 70 96 97 98
68 68 62 64 66 95 85 60 88 91 91 83 53 57 66 86 96 96 92 91 94 94 99 100 100 99 100 100 100 100 100 100 100 100 100 97 84 72 65 64 62 95 95 97
76 75 69 74 85 84 52 81 88 88 84 71 45 56 63 84 86 91 94 94 98 99 98 100 100 100 100 100 99 99 100 100 100 100 100 97 86 77 73 69 64 96 96 96
76 94 86 87 62 48 73 91 89 88 77 56 45 57 63 90 89 93 93 93 97 95 97 99 100 100 100 100 100 100 100 100 100 100 100 100 94 83 74 70 63 93 96 96
81 91 60 48 46 56 82 93 90 83 85 52 47 57 68 89 90 95 94 96 98 99 99 100 100 100 100 99 98 99 99 100 100 100 100 100 94 87 78 71 64 73 96 96
100 53 46 50 52 69 87 93 92 74 80 62 51 55 75 92 95 95 92 97 96 99 100 100 100 100 100 100 100 98 100 99 100 100 100 100 100 97 84 81 81 87 96 97
45 46 49 47 50 70 89 91 90 75 77 68 52 54 83 91 96 97 100 100 99 96 97 100 100 100 100 100 100 99 100 98 100 100 100 100 100 100 98 86 85 85 83 87
52 49 47 44 49 71 89 91 88 75 78 76 52 54 83 93 100 100 99 96 95 96 98 100 100 100 100 100 100 99 100 100 100 100 100 100 100 100 100 100 100 100 86 79
61 52 49 45 50 74 88 90 90 77 81 87 58 54 84 94 97 98 96 94 96 97 100 100 91 100 98 100 100 98 100 98 99 99 100 100 100 100 100 100 100 100 100 93
71 69 54 47 49 70 86 91 91 81 83 90 68 55 82 95 92 95 93 96 89 87 92 95 95 95 100 98 96 98 100 100 100 100 99 99 100 99 100 100 100 100 100 100
75 78 74 59 50 67 86 91 90 81 80 88 82 52 71 94 92 94 99 97 96 95 96 95 100 91 100 96 93 97 97 99 100 100 99 98 99 100 100 100 100 100 100 100
79 80 84 77 59 57 81 90 89 86 78 84 91 53 59 88 88 87 90 90 97 100 100 100 97 93 100 95 97 99 98 96 97 97 98 98 99 98 98 100 100 100 100 100
81 85 86 88 78 58 58 84 88 87 78 82 91 72 55 74 88 85 88 90 90 89 99 98 92 97 97 94 99 100 97 94 94 94 93 96 95 94 93 91 91 91 93 94
82 87 90 91 89 81 60 64 87 88 82 78 90 93 54 61 87 91 90 94 93 90 85 92 94 97 94 93 95 100 100 95 89 77 75 81 84 88 88 88 87 86 84 83
85 88 90 92 91 91 87 64 71 89 90 78 87 94 72 58 61 81 88 92 95 99 93 81 85 94 93 94 95 98 98 98 98 94 83 66 59 59 67 76 81 82 81 81
82 84 87 91 94 95 96 90 67 74 89 84 82 92 92 56 62 66 80 86 92 98 93 89 83 80 83 92 96 98 97 95 96 97 93 90 89 86 71 56 49 49 57 70
58 63 71 82 94 98 97 98 90 68 76 89 83 94 96 86 55 63 72 88 92 90 89 90 88 84 85 83 84 97 98 95 94 94 95 94 94 94 94 94 92 83 60 45
50 52 57 62 72 92 99 98 98 87 67 78 85 86 97 97 77 54 58 57 72 84 84 86 88 83 75 74 84 84 82 95 95 93 96 96 95 96 97 96 96 94 81 49
51 52 50 52 61 73 90 99 100 99 86 68 83 85 91 96 96 77 59 66 65 65 79 82 79 82 80 73 65 67 87 77 86 95 97 94 95 96 96 97 98 96 67 51
51 53 54 53 53 59 76 92 100 100 100 83 75 87 88 94 95 95 88 63 64 67 63 62 72 75 74 72 67 63 61 71 82 76 98 99 99 99 98 97 98 97 74 56
63 62 61 61 58 56 61 83 99 100 100 99 82 88 94 95 95 95 95 94 82 64 64 66 62 60 66 68 65 62 58 55 60 80 71 99 100 100 98 98 100 100 99 60